KVNYKPRB

Guest
Details From KVNY - Van Nuys
To KPRB - PASO ROBLES MUNI
Flight Number -
Tags generated
Created
Modified
Stats Distance 137 nm / 254 km
Max Altitude 14,900 ft / 4,542 m
Waypoints 3
Social Downloads 29
Likes 0
Share

Download

Looking for another format? Having issues loading an existing format? Contact us
Advertisement - Login to hide

Notes

Basic altitude profile: - Ascent Rate: 2500ft/min - Ascent Speed: 109kts - Cruise Altitude: 35000ft - Cruise Speed: 109kts - Descent Rate: 1500ft/min - Descent Speed: 109kts Options: - Use NATs: yes - Use PACOTS: yes - Use low airways: yes - Use high airways: no

Route

KVNY REYES KPRB

ID Type Via Altitude (ft/m) Position (lat/lon) Dist (leg/tot) Name
O KVNY APT - 0 / 0 34.21072 / -118.48984 - / 0 nm Van Nuys
REYES FIX - 14,900 / 4,542 34.65873 / -119.13432 41 / 41 nm
O KPRB APT - 0 / 0 35.67281 / -120.62656 95 / 137 nm PASO ROBLES MUNI

Altitude Profile

Advertisement - Login to hide

KVNY

Details ICAO KVNY (VNY)
Name Van Nuys Airport
Region United States
Timezone America/Los_Angeles (UTC-7.0)
Stats Elevation 802 ft / 244 m (AMSL)
Location 34.210700° -118.490000°
Runways 2
Magnetic Variation 11.683° E

METAR

KVNY 192151Z 13011KT 9SM CLR 24/13 A2984 RMK AO2 SLP097 T02390133

Decode

TAF

TAF KVNY 191732Z 1918/2018 VRB03KT 4SM HZ OVC011 FM191900 14011KT P6SM SKC FM200300 13009KT P6SM OVC015 FM201400 03006KT P6SM OVC020 FM201700 02007KT P6SM SKC

Decode

Departure Runways

ID Width Length Bearing (true/mag) Surface Threshold Overrun Markings Lighting
16L 75 ft / 23 m 4,026 ft / 1,227 m 175.53° / 163.85° ASPHALT 1,437 ft / 438 m 0 ft / 0 m VISUAL EDGE THRESHOLD
16R 151 ft / 46 m 8,027 ft / 2,447 m 175.52° / 163.84° ASPHALT 1,430 ft / 436 m 151 ft / 46 m PREC-APP EDGE THRESHOLD MALSR
34L 151 ft / 46 m 8,027 ft / 2,447 m 355.52° / 343.84° ASPHALT 0 ft / 0 m 174 ft / 53 m PREC-APP EDGE THRESHOLD
34R 75 ft / 23 m 4,026 ft / 1,227 m 355.53° / 343.85° ASPHALT 0 ft / 0 m 0 ft / 0 m VISUAL EDGE THRESHOLD

KPRB

Details ICAO KPRB (PRB)
Name Paso Robles Muni
Region United States
Timezone America/Los_Angeles (UTC-7.0)
Stats Elevation 839 ft / 256 m (AMSL)
Location 35.672800° -120.627000°
Runways 2
Magnetic Variation 12.363° E

METAR

KPRB 192153Z AUTO 33015G21KT 10SM CLR 36/06 A2981 RMK AO2 SLP085 T03560056

Decode

TAF

KPRB 192109Z 1921/2018 30012KT P6SM SKC FM200100 32017G24KT P6SM SKC FM200800 32014KT P6SM SKC FM201100 32010KT P6SM SKC

Decode

Destination Runways

ID Width Length Bearing (true/mag) Surface Threshold Overrun Markings Lighting
01 150 ft / 46 m 6,017 ft / 1,834 m 28.53° / 16.17° ASPHALT 0 ft / 0 m 0 ft / 0 m APP EDGE THRESHOLD
13 100 ft / 30 m 4,706 ft / 1,434 m 143.78° / 131.42° ASPHALT 0 ft / 0 m 0 ft / 0 m APP EDGE THRESHOLD
19 150 ft / 46 m 6,017 ft / 1,834 m 208.54° / 196.18° ASPHALT 0 ft / 0 m 0 ft / 0 m APP EDGE THRESHOLD REIL-OMNI
31 100 ft / 30 m 4,706 ft / 1,434 m 323.79° / 311.42° ASPHALT 0 ft / 0 m 0 ft / 0 m APP EDGE THRESHOLD

Popular Alternatives